Regional Weather Roundup
Issued by NWS Albany, NY

Home | Current Version | Previous Version | Text Only | Print | Product List | Glossary On
Versions: 1 2 3 4 5 6 7 8 9 10 11 12 13 14 15 16 17 18 19 20 21 22 23 24 25 26 27 28 29 30 31 32 33 34 35 36 37 38 39 40 41 42 43 44 45 46 47 48 49 50
000
ASUS41 KALY 301010
RWRALY

NEW YORK STATE HOURLY WEATHER ROUNDUP
NATIONAL WEATHER SERVICE ALBANY NY
600 AM EDT SAT MAY 30 2015

NOTE: "FAIR" INDICATES FEW OR NO CLOUDS BELOW 12,000 FEET WITH NO
SIGNIFICANT WEATHER AND/OR NO OBSTRUCTIONS TO VISIBILITY.

NYZ032-033-038>043-046>054-057>066-NYZ062>081-301100-
EAST


CITY           SKY/WX    TMP DP  RH WIND       PRES   REMARKS
ALBANY         PTCLDY    67  56  67 S9        30.14S
GLENS FALLS    PTCLDY    64  58  80 SW3       30.13R
POUGHKEEPSIE   MOCLDY    64  59  83 SE3       30.18R
NEWBURGH       MOCLDY    64  63  94 CALM      30.20R
MONTGOMERY       N/A     62  60  93 MISG      30.19R
WHITE PLAINS   CLEAR     60  59  96 CALM      30.21R FOG
ISLIP          FOG       64  62  93 SW5       30.21S VSB 1
NEW YORK CITY  PTCLDY    67  61  81 S7        30.20R
CENTRAL PARK   CLEAR     68  63  84 VRB6      30.23R
$$

NYZ005>009-017-018-044>046-055-056-301100-
CENTRAL


CITY           SKY/WX    TMP DP  RH WIND       PRES   REMARKS
FULTON         MOCLDY    74  63  68 S8        30.03R
SYRACUSE       CLOUDY    75  65  70 S14       30.04R
ROME           MOCLDY    69  60  73 E7        30.10R
ELMIRA         CLOUDY    73  66  78 SW8       30.09S
BINGHAMTON     MOCLDY    67  63  87 S10       30.14S
MONTICELLO     CLEAR     59  57  94 CALM      30.21S
$$

NYZ026>034-041>043-301100-
NORTH


CITY           SKY/WX    TMP DP  RH WIND       PRES   REMARKS
WATERTOWN      MOCLDY    74  63  68 S12G21    29.99S
FORT DRUM      NOT AVBL
MASSENA        MOCLDY    74  61  63 SW13      29.97R
SARANAC LAKE   CLOUDY    66  58  75 SW12      30.06S
PLATTSBURGH    PTCLDY    60  57  89 S5        30.02F
$$

NYZ001>004-010>016-019>021-301100-
WEST


CITY           SKY/WX    TMP DP  RH WIND       PRES   REMARKS
NIAGARA FALLS  CLEAR     68  63  84 S12       29.99R
BUFFALO        MOCLDY    73  63  70 S14       30.01R
DUNKIRK        CLEAR     71  64  78 S18G25    30.02S
JAMESTOWN      CLEAR     64  61  88 S8        30.11R
WELLSVILLE     PTCLDY    67  62  84 SW8       30.14S
ROCHESTER      PTCLDY    74  64  71 SW17      30.01S
PENN YAN       CLOUDY    73  64  73 S7        30.07R
$$

             KEY
       WCI = WIND CHILL INDEX
       VSB = VISIBILITY
       HX  = HEAT INDEX
$$


USA.gov is the U.S. government's official web portal to all federal, state and local government web resources and services.